#timestamp,LO_Frequency,Hit,StdDev 
1523336415.1,286046999.2,N
1523336416.0,286046999.2,N
1523336435.8,286046998.8,N
1523336455.6,286046999.4,N
1523336475.5,286046999.0,N
1523336495.3,286046999.2,N
1523336515.2,286046999.0,N
1523336535.9,286046998.6,N
1523336555.7,286046999.5,N
1523336575.6,286046998.2,N
1523336595.4,286046999.3,N
1523336615.2,286046999.6,N
1523336635.1,286046999.1,N
1523336636.0,286046999.1,N
1523336655.8,286046998.9,N
1523336675.7,286046999.4,N
1523336695.5,286046999.2,N
1523336715.3,286046999.2,N
1523336735.2,286046998.7,N
1523336755.0,286046997.4,Y
1523336755.9,286046997.4,P
1523336775.8,286046999.5,N
1523336795.6,286046996.7,P
1523336815.4,286046997.4,N
1523336835.3,286046997.0,N
1523336855.1,286046997.2,N
1523336875.8,286046997.8,N
1523336895.7,286046998.7,N
1523336915.5,286046997.0,Y
1523336935.4,286047000.7,P
1523336955.2,286047000.0,N
1523336975.0,286047000.3,N
1523336975.9,286047000.3,N
1523336995.8,286047001.0,N
1523337015.6,286047000.4,N
1523337035.4,286047002.0,N
1523337055.3,286046999.7,N
1523337075.1,286047001.2,N
1523337095.9,286047000.0,N
1523337115.7,286047000.3,N
1523337135.5,286046999.9,N
1523337155.4,286047002.1,N
1523337175.2,286047004.4,Y
1523337195.0,286046999.7,P
1523337195.9,286046999.7,N
1523337215.8,286047002.3,P
1523337235.6,286047000.0,N
1523337255.5,286047000.2,N
1523337275.3,286047002.8,Y
1523337295.1,286047000.8,P
1523337315.9,286047001.0,P
1523337335.7,286046998.2,P
1523337355.6,286046998.7,N
1523337375.4,286046998.3,N
1523337395.2,286047000.7,N
1523337415.1,286046998.1,N
1523337416.0,286046998.1,N
1523337435.8,286047002.4,N
1523337455.6,286047000.3,N
1523337475.5,286047000.4,N
1523337495.3,286047002.4,N
1523337515.2,286047002.8,N
1523337535.9,286047000.5,N
1523337555.7,286047001.0,N
1523337575.6,286046999.8,N
1523337595.4,286047000.6,N
1523337615.2,286047000.3,N
1523337635.1,286047002.8,N
1523337636.0,286047002.8,N
1523337655.8,286047002.3,N
1523337675.7,286047000.0,N
1523337695.5,286047002.3,N
1523337715.3,286047001.5,N
1523337735.2,286047002.5,N
1523337755.0,286047000.5,N
1523337755.9,286047000.5,N
1523337775.7,286047001.2,N
1523337795.6,286047002.8,N
1523337815.4,286047003.1,N
1523337835.3,286047002.3,N
1523337855.1,286047000.6,N
1523337856.0,286047000.6,N
1523337875.8,286047000.7,N
1523337895.7,286047001.1,N
1523337915.5,286047000.6,N
1523337935.3,286047000.1,N
1523337955.2,286047000.4,N
1523337975.0,286047000.9,N
1523337975.9,286047000.9,N
1523337995.8,286046998.5,N
1523338015.6,286046998.9,N
1523338035.4,286047000.5,N
1523338055.3,286046998.2,N
1523338075.1,286046998.4,N
1523338095.8,286047000.3,N
1523338115.7,286046999.8,N
1523338135.5,286047002.8,N
1523338155.4,286047000.3,N
1523338175.2,286047001.5,N
1523338195.0,286047001.7,N
1523338195.9,286047001.7,N
1523338215.8,286047001.7,N
1523338235.6,286047002.7,N
1523338255.5,286047001.6,N
1523338275.3,286047003.5,N
1523338295.1,286047003.5,N
1523338315.9,286047003.3,N
1523338335.7,286047003.9,N
1523338355.5,286047002.1,N
1523338375.4,286047002.6,N
1523338395.2,286047002.4,N
1523338415.1,286047002.8,N
1523338416.0,286047002.8,N
1523338435.8,286047001.6,N
1523338455.6,286047001.7,N
1523338475.5,286047003.3,N
1523338495.3,286047003.0,N
1523338515.1,286047003.7,N
1523338535.9,286047004.4,N
1523338555.7,286047002.6,N
1523338575.6,286047000.5,N
1523338595.4,286047000.8,N
1523338615.2,286047002.3,N
1523338635.1,286047002.2,N
1523338636.0,286047002.2,N
1523338655.8,286047001.4,N
1523338675.6,286047002.3,N
1523338695.5,286047001.6,N
1523338715.3,286047002.0,N
1523338735.2,286047002.2,N
1523338755.9,286047002.2,N
1523338775.8,286047004.3,Y
1523338795.6,286046998.3,P
1523338815.4,286046998.7,N
1523338835.3,286046999.2,N
1523338855.1,286046999.5,N
1523338875.8,286046997.1,N
1523338895.7,286046996.7,N
1523338915.5,286046997.3,N
1523338935.4,286046996.7,N
1523338955.2,286046996.7,N
1523338975.0,286046998.5,N
1523338975.9,286046998.5,N
1523338995.8,286046999.0,N
1523339015.6,286046996.6,N
1523339035.5,286046996.6,N
1523339055.3,286046998.6,N
1523339075.1,286047000.6,N
1523339095.9,286046998.7,N
1523339115.7,286046998.7,N
1523339135.5,286046998.5,N
1523339155.4,286047000.9,N
1523339175.2,286046998.4,N
1523339195.1,286047000.0,N
1523339196.0,286047000.0,N
1523339215.8,286047000.4,N
1523339235.6,286047000.9,N
1523339255.5,286047000.0,N
1523339275.3,286047001.2,N
1523339295.2,286046998.5,N
1523339315.9,286046997.2,N
1523339335.7,286046996.7,N
1523339355.6,286046997.1,N
1523339375.4,286046997.3,N
1523339395.2,286046999.3,N
1523339415.1,286047000.7,N
1523339416.0,286047000.7,N
1523339435.8,286047000.7,N
1523339455.7,286047000.8,N
1523339475.5,286046999.2,N
1523339495.3,286046998.7,N
1523339515.2,286046998.3,N
1523339535.0,286046998.5,N
1523339535.9,286046998.5,N
1523339555.8,286046998.6,N
1523339575.6,286047000.7,N
1523339595.4,286046998.1,N
1523339615.3,286046999.0,N
1523339635.1,286046999.4,N
1523339655.9,286046998.6,N
1523339675.7,286047000.5,N
1523339695.5,286047000.3,N
1523339715.4,286047001.1,N
1523339735.2,286046998.1,N
1523339755.0,286047000.6,N
1523339755.9,286047000.6,N
1523339775.8,286046999.9,N
1523339795.6,286046998.1,N
1523339815.5,286047001.1,N
1523339835.3,286046998.2,N
1523339855.1,286047000.7,N
1523339875.9,286046999.3,N
1523339895.7,286046999.2,N
1523339915.6,286046998.8,N
1523339935.4,286046998.6,N
1523339955.2,286046999.0,N
1523339975.1,286046999.6,N
1523339976.0,286046999.6,N
1523339995.8,286046999.3,N
